Weather Roundup
Issued by NWS

Home | Current Version | Previous Version | Graphics & Text | Print | Product List | Glossary Off
Versions: 1 2 3 4 5 6 7 8 9 10 11 12 13 14 15 16 17 18 19 20 21 22 23 24 25 26 27 28 29 30 31 32 33 34 35 36 37 38 39 40 41 42 43 44 45 46 47 48 49 50

000
NZUS93 KARX 222310
HRRWXR

CURRENT HOURLY OBSERVATIONS ACROSS
MUCH OF THE UPPER MISSISSIPPI VALLEY
NATIONAL WEATHER SERVICE LA CROSSE WI
600 PM CDT FRI MAY 22 2015


...SOUTHEAST MINNESOTA...


CITY           SKY/WX    TMP DP  RH WIND       PRES   REMARKS
ROCHESTER      PTSUNNY   71  29  21 CALM      30.20F
ROCHESTER/MAYO FAIR      72  32  23 CALM      30.20S
WINONA         PTSUNNY   72  36  26 CALM      30.19S
AUSTIN         CLOUDY    72  41  33 CALM      30.19S
ALBERT LEA     CLOUDY    72  30  21 S6        30.19S
DODGE CENTER   PTSUNNY   72  30  21 CALM      30.19F
PRESTON        PTSUNNY   69  32  24 E3        30.20F
OWATONNA       PTSUNNY   73  27  17 CALM      30.18F
FARIBAULT      PTSUNNY   72  32  23 CALM      30.19S
$$

...ELSEWHERE IN MINNESOTA...


CITY           SKY/WX    TMP DP  RH WIND       PRES   REMARKS
MINNEAPOLIS    MOSUNNY   74  35  24 SE6       30.18S
INTNL FALLS    SUNNY     75  35  23 W7        30.10F
DULUTH         MOSUNNY   73  31  21 SW5       30.16F
RED WING       MOSUNNY   73  34  23 SE5       30.17F
REDWOOD FALLS  PTSUNNY   74  32  21 E7        30.15F
MANKATO        PTSUNNY   72  34  25 E7        30.18F
WORTHINGTON    CLOUDY    73  30  20 S7        30.17S
FAIRMONT       CLOUDY    72  34  25 SE8       30.17F
$$

...SOUTHWEST WISCONSIN...


CITY           SKY/WX    TMP DP  RH WIND       PRES   REMARKS
LA CROSSE      PTSUNNY   75  32  20 NW5       30.18S
PRAIRIE DU CHI CLOUDY    73  38  28 S5        30.18S
BOSCOBEL       CLOUDY    74  38  27 CALM      30.19S
LONE ROCK      PTSUNNY   73  37  27 NW3       30.19R
PLATTEVILLE    CLOUDY    72  32  23 W3        30.20F
FORT MC COY    PTSUNNY   71  33  24 CALM      30.20S
CAMP DOUGLAS   MOSUNNY   71  36  27 VRB1      30.19S
VIROQUA        FAIR      70  32  24 CALM      30.21R
WIS DELLS      PTSUNNY   71  34  26 W3        30.20S
$$

...ELSEWHERE IN WISCONSIN...


CITY           SKY/WX    TMP DP  RH WIND       PRES   REMARKS
MILWAUKEE      PTSUNNY   53  27  36 SE8       30.26S
MADISON        PTSUNNY   72  38  29 CALM      30.20S
GREEN BAY      SUNNY     64  33  31 SE13G23   30.22R
EAU CLAIRE     SUNNY     71  33  24 W3        30.19F
BLACK RVR FLS  FAIR      72  29  19 CALM      30.18S
MEDFORD        SUNNY     67  33  28 W6        30.21S
WAUSAU         SUNNY     69  31  24 W9        30.19F
WIS RAPIDS     SUNNY     72  30  21 N7        30.21F
MARSHFIELD     SUNNY     70  32  24 N8        30.20F
RICE LAKE      SUNNY     71  31  23 W5        30.21F
$$

...NORTHEAST IOWA...


CITY           SKY/WX    TMP DP  RH WIND       PRES   REMARKS
DECORAH        CLOUDY    72  32  23 CALM      30.19S
MASON CITY     CLOUDY    73  38  27 SW3       30.19F
CHARLES CITY   CLOUDY    73  34  23 S9        30.19S
OELWEIN        CLOUDY    73  37  27 W7        30.20S
$$

...ELSEWHERE IN IOWA...


CITY           SKY/WX    TMP DP  RH WIND       PRES   REMARKS
DES MOINES     CLOUDY    74  39  28 SW6       30.19S
IOWA CITY      CLOUDY    74  40  29 CALM      30.20S
FORT DODGE     CLOUDY    70  45  40 CALM      30.19S
$$

...NORTHERN ILLINOIS...


CITY           SKY/WX    TMP DP  RH WIND       PRES   REMARKS
CHICAGO-OHARE  CLOUDY    60  25  26 E12       30.26R
CHICAGO-MIDWAY PTSUNNY   58  30  34 E14       30.26S
MOLINE         MOSUNNY   73  38  27 SW6       30.18S
ROCKFORD       CLOUDY    72  38  29 CALM      30.23R
PEORIA         MOSUNNY   77  42  28 CALM      30.19S
$$

NOTE: "FAIR" INDICATES FEW OR NO CLOUDS BELOW 12,000 FEET WITH NO
SIGNIFICANT WEATHER AND/OR OBSTRUCTIONS TO VISIBILITY. WIND
SPEEDS ARE IN MILES-PER-HOUR.



USA.gov is the U.S. government's official web portal to all federal, state and local government web resources and services.